Home   Weather   Sevilla   Past weeks

Flag for Spain Past Weather in Sevilla, Spain — Yesterday and Last 2 Weeks

73 °F

Passing clouds.

Feels Like: 76 °F
Forecast: 64 / 70 °F
Wind: 12 mph from Southwest

Location: Sevilla / San Pablo

Current Time: Oct 21, 2016 at 8:22:10 PM

Latest Report: Oct 21, 2016 at 7:30 PM

Visibility: 5 mi

Pressure: 29.86 "Hg

Humidity: 65%

Dew Point: 61 °F

Location of SevillaLocation

Past Weather in Sevilla — Graph


Sevilla Temperature Yesterday

Maximum temperature yesterday: 81 °F (at 4:00 PM)
Minimum temperature yesterday: 64 °F (at 8:00 AM)
Average temperature yesterday: 72 °F

High & Low Weather Summary for the Past Weeks

High86 °F (Oct 6, 7:00 PM)100% (Oct 7, 6:00 AM)30.21 "Hg (Oct 7, 6:00 AM)
Low52 °F (Oct 15, 7:00 AM)20% (Oct 7, 5:30 PM)29.59 "Hg (Oct 13, 4:30 AM)
Average68 °F70%29.96 "Hg
* Reported Oct 6 7:00 PM — Oct 21 7:30 PM, Sevilla, Weather by CustomWeather, © 2016

Note: Actual official high and low records may vary slightly from our data, if they occured in-between our weather recording intervals... More about our weather records


Sevilla Weather History for the Previous 24 Hours

Scroll right to see more
Time TempWeatherWind HumidityBarometerVisibility
7:30 PM
Fri, Oct 21
73 °FPassing clouds.12 mph65%29.86 "Hg5 mi
7:00 PM75 °FScattered clouds.8 mph57%29.83 "HgN/A
6:30 PM75 °FPassing clouds.7 mph57%29.83 "HgN/A
6:00 PM75 °FPassing clouds.7 mph57%29.83 "HgN/A
5:30 PM75 °FPassing clouds.5 mph57%29.83 "HgN/A
5:00 PM75 °FPassing clouds.6 mph57%29.86 "HgN/A
4:30 PM75 °FPassing clouds.7 mph57%29.86 "HgN/A
4:00 PM75 °FPassing clouds.5 mph57%29.86 "HgN/A
3:30 PM75 °FScattered clouds.1 mph61%29.86 "HgN/A
3:00 PM73 °FScattered clouds.3 mph65%29.86 "HgN/A
2:30 PM73 °FScattered clouds.3 mph65%29.89 "HgN/A
2:00 PM73 °FScattered clouds.5 mph65%29.89 "HgN/A
1:30 PM72 °FScattered clouds.3 mph69%29.89 "HgN/A
1:00 PM70 °FScattered clouds.2 mph78%29.89 "HgN/A
12:30 PM70 °FScattered clouds.No wind78%29.89 "Hg5 mi
12:00 PM70 °FScattered clouds.No wind78%29.92 "Hg5 mi
11:30 AM66 °FPartly sunny.No wind88%29.92 "Hg4 mi
11:00 AM66 °FFog.1 mph88%29.92 "Hg3 mi
10:30 AM66 °FFog.2 mph88%29.92 "Hg3 mi
10:00 AM64 °FFog.2 mph94%29.89 "Hg2 mi
9:30 AM63 °FFog.2 mph94%29.89 "Hg2 mi
9:00 AM63 °FFog.1 mph94%29.89 "Hg2 mi
8:30 AM63 °FFog.2 mph94%29.86 "Hg2 mi
8:00 AM64 °FFog.No wind94%29.86 "Hg2 mi
7:30 AM63 °FFog.No wind94%29.86 "Hg2 mi
7:00 AM63 °FFog.1 mph94%29.86 "Hg2 mi
6:30 AM63 °FFog.No wind94%29.86 "Hg2 mi
6:00 AM63 °FFog.1 mph94%29.86 "Hg2 mi
5:30 AM61 °FFog.1 mph94%29.86 "Hg2 mi
5:00 AM63 °FFog.No wind94%29.86 "Hg2 mi
4:30 AM63 °FFog.5 mph94%29.86 "Hg2 mi
4:00 AM63 °FFog.3 mph88%29.89 "Hg2 mi
3:30 AM63 °FFog.3 mph94%29.89 "Hg3 mi
3:00 AM64 °FMild.3 mph88%29.89 "Hg2 mi
2:30 AM64 °FMild.7 mph88%29.89 "Hg3 mi
2:00 AM66 °FMild.5 mph83%29.89 "Hg3 mi
1:30 AM66 °FMild.3 mph83%29.89 "Hg6 mi
1:00 AM66 °FClear.5 mph83%29.89 "Hg5 mi
12:30 AM66 °FClear.5 mph83%29.89 "Hg4 mi
12:00 AM68 °FClear.3 mph78%29.89 "Hg4 mi
11:30 PM
Thu, Oct 20
68 °FClear.3 mph78%29.89 "Hg10 mi
11:00 PM70 °FClear.3 mph73%29.89 "Hg10 mi
10:30 PM70 °FClear.6 mph73%29.89 "Hg10 mi
10:00 PM70 °FClear.1 mph73%29.89 "Hg10 mi
9:30 PM72 °FClear.1 mph69%29.86 "Hg10 mi
9:00 PM73 °FClear.8 mph65%29.86 "Hg10 mi
8:30 PM75 °FClear.8 mph61%29.86 "Hg10 mi
8:00 PM75 °FPassing clouds.6 mph61%29.86 "HgN/A
Weather by CustomWeather, © 2016

See weather overviewHow to use our weather pages